Weather History for KPAH - March, 2014

Change the Weather History Date:

Thursday, March 27, 2014

  Actual Average Record
Temperature  
Mean Temperature 57 °F 52 °F  
Max Temperature 69 °F 63 °F 82 °F (2007)
Min Temperature 45 °F 41 °F 17 °F (1955)
Degree Days  
Heating Degree Days 8 14  
Month to date heating degree days 590 472  
Since 1 July heating degree days 4245 3768  
Cooling Degree Days 0 0  
Month to date cooling degree days 0 0  
Year to date cooling degree days 0 0  
Growing Degree Days 5 (Base 50)    
Moisture  
Dew Point 36 °F    
Average Humidity 57    
Maximum Humidity 83    
Minimum Humidity 31    
Precipitation  
Precipitation 0.09 in 0.13 in 3.19 in (1950)
Month to date precipitation 2.59 3.35  
Year to date precipitation 7.77 10.94  
Snow  
Snow 0.00 in 0.00 in T in (1955)
Month to date snowfall 5.6 0.6  
Since 1 July snowfall 18.5 9.1  
Snow Depth 0.00 in    
Sea Level Pressure  
Sea Level Pressure 29.90 in    
Wind  
Wind Speed 16 mph (South)    
Max Wind Speed 25 mph    
Max Gust Speed 36 mph    
Visibility 10 miles    
Events Rain , Thunderstorm    
T = Trace of Precipitation, MM = Missing Value Source: NWS Daily Summary

Daily Weather History Graph

Daily Weather History Graph

Search for Another Location

Airport or City:

Trip Planner

Search our weather history database for the weather conditions in past years. The results will help you decide how hot, cold, wet, or windy it might be!

Date:

Astronomy

Mar. 27, 2014 Rise Set
Actual Time 6:48 AM CDT 7:13 PM CDT
Civil Twilight 6:22 AM CDT 7:39 PM CDT
Nautical Twilight 5:51 AM CDT 8:09 PM CDT
Astronomical Twilight 5:20 AM CDT 8:41 PM CDT
Moon 4:34 AM CDT (3/27) 4:04 PM CDT (3/27)
Length of Visible Light 13h 17m
Length of Day
12h 25m
Waning Crescent, 13% of the Moon is Illuminated
Mar 27
Waning Crescent
Mar 30
New
Apr 7
First Quarter
Apr 15
Full
Apr 22
Last Quarter

Hourly Weather History & Observations

Time (CDT) Temp. Windchill Dew Point Humidity Pressure Visibility Wind Dir Wind Speed Gust Speed Precip Events Conditions
12:53 AM 46.9 °F - 19.0 °F 33% 30.10 in 10.0 mi SSE 10.4 mph - N/A   Overcast
1:53 AM 46.0 °F 41.4 °F 24.1 °F 42% 30.08 in 10.0 mi SSE 9.2 mph - 0.00 in   Overcast
2:53 AM 46.0 °F 40.6 °F 25.0 °F 44% 30.04 in 10.0 mi SSE 11.5 mph - 0.00 in   Overcast
3:53 AM 46.9 °F - 25.0 °F 42% 30.03 in 10.0 mi SSE 11.5 mph - N/A   Overcast
4:53 AM 48.0 °F - 25.0 °F 41% 29.99 in 10.0 mi South 12.7 mph - 0.00 in   Overcast
5:53 AM 48.9 °F - 26.1 °F 41% 30.00 in 10.0 mi South 12.7 mph 20.7 mph N/A   Overcast
6:53 AM 48.9 °F - 26.1 °F 41% 30.00 in 10.0 mi South 15.0 mph 23.0 mph N/A   Overcast
7:53 AM 48.9 °F - 26.1 °F 41% 30.00 in 10.0 mi South 13.8 mph 23.0 mph N/A   Overcast
8:53 AM 51.1 °F - 26.1 °F 38% 30.01 in 10.0 mi South 15.0 mph 24.2 mph N/A   Overcast
9:53 AM 53.1 °F - 26.1 °F 35% 29.99 in 10.0 mi South 15.0 mph 25.3 mph N/A   Overcast
10:53 AM 55.0 °F - 27.0 °F 34% 29.98 in 10.0 mi South 15.0 mph 31.1 mph N/A   Overcast
11:53 AM 55.9 °F - 27.0 °F 33% 29.96 in 10.0 mi South 16.1 mph 26.5 mph N/A   Overcast
12:53 PM 59.0 °F - 28.9 °F 32% 29.93 in 10.0 mi South 17.3 mph 29.9 mph N/A   Overcast
1:53 PM 64.0 °F - 33.1 °F 31% 29.87 in 10.0 mi South 23.0 mph 32.2 mph N/A   Mostly Cloudy
2:53 PM 64.9 °F - 36.0 °F 34% 29.82 in 10.0 mi South 21.9 mph 28.8 mph N/A   Mostly Cloudy
3:53 PM 66.0 °F - 37.9 °F 36% 29.78 in 10.0 mi South 17.3 mph 26.5 mph N/A   Mostly Cloudy
4:53 PM 63.0 °F - 39.9 °F 43% 29.81 in 10.0 mi South 15.0 mph 28.8 mph N/A   Mostly Cloudy
5:53 PM 57.9 °F - 45.0 °F 62% 29.78 in 10.0 mi South 23.0 mph 31.1 mph 0.00 in Rain Light Rain
6:53 PM 55.0 °F - 48.9 °F 80% 29.77 in 9.0 mi South 16.1 mph 25.3 mph 0.02 in Rain Light Rain
7:49 PM 55.4 °F - 50.0 °F 82% 29.79 in 6.0 mi South 15.0 mph 24.2 mph 0.03 in Rain , Thunderstorm Rain
7:53 PM 55.0 °F - 50.0 °F 83% 29.79 in 6.0 mi South 16.1 mph 24.2 mph 0.03 in Rain , Thunderstorm Light Rain
8:04 PM 55.0 °F - 50.0 °F 83% 29.80 in 7.0 mi South 15.0 mph 25.3 mph 0.00 in Rain Light Rain
8:53 PM 55.0 °F - 50.0 °F 83% 29.80 in 9.0 mi South 18.4 mph 32.2 mph 0.00 in Rain Light Rain
9:53 PM 55.0 °F - 48.9 °F 80% 29.81 in 10.0 mi South 18.4 mph 31.1 mph 0.01 in   Overcast
10:25 PM 55.9 °F - 48.9 °F 77% 29.81 in 9.0 mi South 15.0 mph 26.5 mph 0.01 in Rain Light Rain
10:53 PM 55.9 °F - 48.9 °F 77% 29.81 in 10.0 mi South 19.6 mph 25.3 mph 0.02 in   Overcast
11:37 PM 55.9 °F - 50.0 °F 80% 29.81 in 10.0 mi South 15.0 mph 24.2 mph 0.01 in   Overcast
11:53 PM 55.9 °F - 50.0 °F 80% 29.80 in 10.0 mi South 15.0 mph 23.0 mph 0.01 in   Overcast